Location: Passau
(48.5830°N, 13.4830°E)
Time: 02:32:17
(UTC+01:00)

NOAA 19 - Pass Details

Date: 08 December 2021
Orbit: 841 x 860 km, 99.2° (Epoch: 17 January)

Event Time Altitude Azimuth Distance (km) Brightness Sun altitude
Rises 17:06:56 0° 117° (ESE) 3,393 8.0 -8.9°
Reaches altitude 10° 17:09:50 10° 102° (ESE) 2,464 7.1 -9.4°
Maximum altitude 17:13:44 21° 56° (NE) 1,838 6.4 -10.0°
Drops below altitude 10° 17:17:40 10° 10° (N) 2,482 7.3 -10.6°
Sets 17:20:36 0° 355° (N) 3,426 8.2 -11.0°
